H1 CPF 2 NER 2021 2 5 9 036 01 glonass106 H2 0705201 9106 32275 2021 2 5 0 0 0 2021 2 8 23 45 0 900 1 1 0 0 0 1 H9 10 0 59250 0.00000 0 -710866.198 18003896.568 -18049283.483 10 0 59250 900.00000 0 -1625972.981 15836939.343 -19923423.119 10 0 59250 1800.00000 0 -2807992.895 13567782.736 -21410380.873 10 0 59250 2700.00000 0 -4247916.853 11265311.453 -22481259.202 10 0 59250 3600.00000 0 -5923872.468 8996886.273 -23115247.909 10 0 59250 4500.00000 0 -7801831.333 6825678.015 -23300027.854 10 0 59250 5400.00000 0 -9836838.167 4808192.664 -23032009.760 10 0 59250 6300.00000 0 -11974711.588 2992090.352 -22316403.639 10 0 59250 7200.00000 0 -14154146.220 1414388.534 -21167117.566 10 0 59250 8100.00000 0 -16309129.065 100123.413 -19606487.736 10 0 59250 9000.00000 0 -18371569.850 -938475.470 -17664844.829 10 0 59250 9900.00000 0 -20274035.793 -1702264.015 -15379924.920 10 0 59250 10800.00000 0 -21952476.788 -2204905.225 -12796136.060 10 0 59250 11700.00000 0 -23348827.133 -2472046.626 -9963694.547 10 0 59250 12600.00000 0 -24413374.826 -2539989.182 -6937647.609 10 0 59250 13500.00000 0 -25106799.108 -2453904.947 -3776801.492 10 0 59250 14400.00000 0 -25401790.719 -2265679.706 -542575.975 10 0 59250 15300.00000 0 -25284186.792 -2031472.750 2702192.024 10 0 59250 16200.00000 0 -24753572.770 -1809097.863 5894472.043 10 0 59250 17100.00000 0 -23823326.168 -1655337.124 8972266.684 10 0 59250 18000.00000 0 -22520100.537 -1623301.853 11875816.833 10 0 59250 18900.00000 0 -20882771.529 -1759952.884 14548761.858 10 0 59250 19800.00000 0 -18960889.505 -2103885.488 16939232.131 10 0 59250 20700.00000 0 -16812703.723 -2683472.859 19000852.696 10 0 59250 21600.00000 0 -14502840.857 -3515446.868 20693639.014 10 0 59250 22500.00000 0 -12099734.730 -4603976.302 21984767.904 10 0 59250 23400.00000 0 -9672914.298 -5940281.818 22849209.344 10 0 59250 24300.00000 0 -7290262.385 -7502804.457 23270207.594 10 0 59250 25200.00000 0 -5015358.591 -9257921.450 23239602.929 10 0 59250 26100.00000 0 -2905016.115 -11161180.288 22757988.194 10 0 59250 27000.00000 0 -1007113.941 -13159000.498 21834697.411 10 0 59250 27900.00000 0 641186.552 -15190773.193 20487626.635 10 0 59250 28800.00000 0 2014767.284 -17191271.710 18742890.281 10 0 59250 29700.00000 0 3101367.364 -19093273.705 16634319.108 10 0 59250 30600.00000 0 3901852.179 -20830285.997 14202808.914 10 0 59250 31500.00000 0 4429927.308 -22339258.766 11495531.974 10 0 59250 32400.00000 0 4711310.065 -23563175.941 8565025.804 10 0 59250 33300.00000 0 4782394.219 -24453413.325 5468176.417 10 0 59250 34200.00000 0 4688464.647 -24971765.409 2265115.501 10 0 59250 35100.00000 0 4481537.848 -25092055.428 -981947.174 10 0 59250 36000.00000 0 4217920.050 -24801260.543 -4209933.362 10 0 59250 36900.00000 0 3955586.745 -24100104.253 -7356124.075 10 0 59250 37800.00000 0 3751495.136 -23003090.546 -10359381.155 10 0 59250 38700.00000 0 3658943.907 -21537977.812 -13161338.488 10 0 59250 39600.00000 0 3725092.772 -19744714.131 -15707539.132 10 0 59250 40500.00000 0 3988747.424 -17673878.288 -17948495.944 10 0 59250 41400.00000 0 4478504.359 -15384691.515 -19840654.883 10 0 59250 42300.00000 0 5211334.629 -12942683.067 -21347242.145 10 0 59250 43200.00000 0 6191667.127 -10417106.997 -22438978.834 10 0 59250 44100.00000 0 7411010.884 -7878217.747 -23094649.502 10 0 59250 45000.00000 0 8848133.110 -5394517.976 -23301513.761 10 0 59250 45900.00000 0 10469786.423 -3030092.871 -23055553.263 10 0 59250 46800.00000 0 12231955.667 -842141.444 -22361549.455 10 0 59250 47700.00000 0 14081572.850 1121192.989 -21232990.661 10 0 59250 48600.00000 0 15958629.143 2822603.595 -19691810.269 10 0 59250 49500.00000 0 17798596.133 4236938.831 -17767960.921 10 0 59250 50400.00000 0 19535055.367 5352005.188 -15498832.741 10 0 59250 51300.00000 0 21102426.332 6168821.557 -12928526.653 10 0 59250 52200.00000 0 22438678.687 6701315.802 -10106996.651 10 0 59250 53100.00000 0 23487914.914 6975477.489 -7089077.619 10 0 59250 54000.00000 0 24202714.874 7028003.741 -3933417.617 10 0 59250 54900.00000 0 24546143.610 6904496.439 -701335.532 10 0 59250 55800.00000 0 24493337.747 6657288.007 2544373.287 10 0 59250 56700.00000 0 24032603.652 6342988.642 5740659.792 10 0 59250 57600.00000 0 23165981.019 6019859.622 8825448.193 10 0 59250 58500.00000 0 21909248.099 5745124.483 11738842.754 10 0 59250 59400.00000 0 20291368.355 5572332.424 14424290.717 10 0 59250 60300.00000 0 18353401.684 5548885.812 16829678.673 10 0 59250 61200.00000 0 16146925.849 5713836.568 18908341.091 10 0 59250 62100.00000 0 13732034.049 6096044.655 20619961.819 10 0 59250 63000.00000 0 11174992.021 6712776.500 21931351.564 10 0 59250 63900.00000 0 8545652.119 7568802.601 22817086.847 10 0 59250 64800.00000 0 5914731.485 8656032.592 23259998.770 10 0 59250 65700.00000 0 3351066.819 9953703.585 23251502.725 10 0 59250 66600.00000 0 918959.083 11429114.545 22791763.108 10 0 59250 67500.00000 0 -1324282.590 13038876.717 21889690.135 10 0 59250 68400.00000 0 -3330496.778 14730628.725 20562768.800 10 0 59250 69300.00000 0 -5062436.882 16445145.489 18836723.072 10 0 59250 70200.00000 0 -6495077.012 18118753.653 16745021.376 10 0 59250 71100.00000 0 -7616403.320 19685953.275 14328232.272 10 0 59250 72000.00000 0 -8427658.615 21082136.560 11633242.227 10 0 59250 72900.00000 0 -8943030.957 22246290.084 8712349.956 10 0 59250 73800.00000 0 -9188800.093 23123567.297 5622254.350 10 0 59250 74700.00000 0 -9201978.284 23667623.079 2422955.362 10 0 59250 75600.00000 0 -9028503.436 23842611.883 -823410.945 10 0 59250 76500.00000 0 -8721061.379 23624764.841 -4053780.508 10 0 59250 77400.00000 0 -8336629.862 23003478.754 -7205388.630 10 0 59250 78300.00000 0 -7933848.715 21981870.392 -10216992.389 10 0 59250 79200.00000 0 -7570328.028 20576771.979 -13030063.841 10 0 59250 80100.00000 0 -7300008.848 18818167.322 -15589930.281 10 0 59250 81000.00000 0 -7170688.606 16748091.609 -17846839.080 10 0 59250 81900.00000 0 -7221816.519 14419040.359 -19756926.183 10 0 59250 82800.00000 0 -7482652.637 11891953.733 -21283069.331 10 0 59250 83700.00000 0 -7970868.822 9233859.999 -22395609.554 10 0 59250 84600.00000 0 -8691651.235 6515276.081 -23072927.136 10 0 59250 85500.00000 0 -9637342.692 3807473.247 -23301861.095 10 0 59251 0.00000 0 -10787640.542 1179721.313 -23077964.353 10 0 59251 900.00000 0 -12110342.696 -1303374.491 -22405589.712 10 0 59251 1800.00000 0 -13562610.252 -3584333.987 -21297805.338 10 0 59251 2700.00000 0 -15092695.636 -5614957.471 -19776140.976 10 0 59251 3600.00000 0 -16642063.062 -7358088.424 -17870170.003 10 0 59251 4500.00000 0 -18147813.450 -8788909.891 -15616935.018 10 0 59251 5400.00000 0 -19545312.018 -9895722.095 -13060227.943 10 0 59251 6300.00000 0 -20770908.431 -10680169.799 -10249738.337 10 0 59251 7200.00000 0 -21764635.095 -11156911.103 -7240086.417 10 0 59251 8100.00000 0 -22472770.027 -11352742.916 -4089759.576 10 0 59251 9000.00000 0 -22850156.180 -11305221.157 -859973.197 10 0 59251 9900.00000 0 -22862179.291 -11060835.003 2386521.671 10 0 59251 10800.00000 0 -22486320.614 -10672813.409 5586660.216 10 0 59251 11700.00000 0 -21713218.877 -10198657.512 8678291.158 10 0 59251 12600.00000 0 -20547196.453 -9697504.032 11601385.054 10 0 59251 13500.00000 0 -19006227.369 -9227431.783 14299199.903 10 0 59251 14400.00000 0 -17121348.216 -8842825.548 16719381.249 10 0 59251 15300.00000 0 -14935536.427 -8591908.947 18814975.496 10 0 59251 16200.00000 0 -12502102.571 -8514550.504 20545337.065 10 0 59251 17100.00000 0 -9882663.392 -8640435.455 21876912.333 10 0 59251 18000.00000 0 -7144779.728 -8987680.251 22783885.707 10 0 59251 18900.00000 0 -4359357.010 -9561948.073 23248676.013 10 0 59251 19800.00000 0 -1597915.655 -10356102.659 23262274.201 10 0 59251 20700.00000 0 1070156.045 -11350415.249 22824416.245 10 0 59251 21600.00000 0 3580253.519 -12513316.414 21943588.215 10 0 59251 22500.00000 0 5875002.948 -13802661.900 20636863.387 10 0 59251 23400.00000 0 7906403.126 -15167460.087 18929574.338 10 0 59251 24300.00000 0 9637574.175 -16549989.455 16854825.934 10 0 59251 25200.00000 0 11044041.364 -17888218.003 14452857.997 10 0 59251 26100.00000 0 12114501.370 -19118423.672 11770269.404 10 0 59251 27000.00000 0 12851039.874 -20177906.212 8859118.004 10 0 59251 27900.00000 0 13268792.199 -21007676.693 5775913.240 10 0 59251 28800.00000 0 13395061.890 -21555011.460 2580520.776 10 0 59251 29700.00000 0 13267935.019 -21775762.691 -664999.768 10 0 59251 30600.00000 0 12934449.224 -21636327.698 -3897601.336 10 0 59251 31500.00000 0 12448395.278 -21115193.234 -7054476.399 10 0 59251 32400.00000 0 11867844.673 -20203988.869 -10074280.126 10 0 59251 33300.00000 0 11252508.239 -18908004.136 -12898325.526 10 0 59251 34200.00000 0 10661038.025 -17246146.706 -15471726.805 10 0 59251 35100.00000 0 10148386.988 -15250342.452 -17744468.349 10 0 59251 36000.00000 0 9763338.537 -12964401.663 -19672378.370 10 0 59251 36900.00000 0 9546310.645 -10442398.191 -21217988.150 10 0 59251 37800.00000 0 9527527.577 -7746628.600 -22351260.288 10 0 59251 38700.00000 0 9725636.614 -4945235.870 -23050172.075 10 0 59251 39600.00000 0 10146828.348 -2109596.226 -23301142.809 10 0 59251 40500.00000 0 10784497.889 688422.717 -23099297.131 10 0 59251 41400.00000 0 11619461.550 3379219.012 -22448559.384 10 0 59251 42300.00000 0 12620720.218 5898114.540 -21361577.313 10 0 59251 43200.00000 0 13746737.684 8187804.451 -19859476.518 10 0 59251 44100.00000 0 14947180.515 10200496.752 -17971450.293 10 0 59251 45000.00000 0 16165046.609 11899653.710 -15734192.595 10 0 59251 45900.00000 0 17339093.075 13261263.443 -13191184.900 10 0 59251 46800.00000 0 18406461.418 14274589.632 -10391850.554 10 0 59251 47700.00000 0 19305389.389 14942369.067 -7390592.980 10 0 59251 48600.00000 0 19977895.143 15280449.959 -4245736.441 10 0 59251 49500.00000 0 20372320.272 15316887.457 -1018390.071 10 0 59251 50400.00000 0 20445624.124 15090535.618 2228742.355 10 0 59251 51300.00000 0 20165332.271 14649196.329 5432583.361 10 0 59251 52200.00000 0 19511056.512 14047404.370 8530909.312 10 0 59251 53100.00000 0 18475521.952 13343942.947 11463560.147 10 0 59251 54000.00000 0 17065057.451 12599195.403 14173607.573 10 0 59251 54900.00000 0 15299528.366 11872445.351 16608458.876 10 0 59251 55800.00000 0 13211713.966 11219239.501 18720874.949 10 0 59251 56700.00000 0 10846155.082 10688924.446 20469883.088 10 0 59251 57600.00000 0 8257519.591 10322461.115 21821567.356 10 0 59251 58500.00000 0 5508553.327 10150608.695 22749721.730 10 0 59251 59400.00000 0 2667701.054 10192554.143 23236354.069 10 0 59251 60300.00000 0 -193504.473 10455044.661 23272031.760 10 0 59251 61200.00000 0 -3003177.700 10932059.467 22856062.767 10 0 59251 62100.00000 0 -5691827.235 11605034.646 21996508.917 10 0 59251 63000.00000 0 -8195001.645 12443631.882 20710031.135 10 0 59251 63900.00000 0 -10455725.170 13407019.168 19021569.463 10 0 59251 64800.00000 0 -12426623.265 14445610.223 16963863.578 10 0 59251 65700.00000 0 -14071650.503 15503190.132 14576822.530 10 0 59251 66600.00000 0 -15367349.648 16519338.370 11906755.248 10 0 59251 67500.00000 0 -16303590.199 17432047.716 9005476.116 10 0 59251 68400.00000 0 -16883756.219 18180429.056 5929302.380 10 0 59251 69300.00000 0 -17124376.202 18707388.096 2737962.573 10 0 59251 70200.00000 0 -17054211.124 18962160.896 -506563.015 10 0 59251 71100.00000 0 -16712839.648 18902600.780 -3741247.253 10 0 59251 72000.00000 0 -16148800.592 18497119.397 -6903242.681 10 0 59251 72900.00000 0 -15417371.608 17726199.184 -9931105.403 10 0 59251 73800.00000 0 -14578078.314 16583412.390 -12765992.130 10 0 59251 74700.00000 0 -13692039.597 15075902.712 -15352806.541 10 0 59251 75600.00000 0 -12819261.618 13224308.121 -17641272.365 10 0 59251 76500.00000 0 -12015995.118 11062127.049 -19586912.122 10 0 59251 77400.00000 0 -11332267.839 8634553.507 -21151912.333 10 0 59251 78300.00000 0 -10809696.283 5996828.957 -22305858.540 10 0 59251 79200.00000 0 -10479669.130 3212178.872 -23026326.038 10 0 59251 80100.00000 0 -10361978.852 349419.361 -23299315.062 10 0 59251 81000.00000 0 -10463959.091 -2519667.189 -23119522.262 10 0 59251 81900.00000 0 -10780164.071 -5323078.982 -22490443.406 10 0 59251 82800.00000 0 -11292603.509 -7991350.487 -21424305.372 10 0 59251 83700.00000 0 -11971523.138 -10460203.059 -19941828.776 10 0 59251 84600.00000 0 -12776698.023 -12672980.938 -18071825.649 10 0 59251 85500.00000 0 -13659184.264 -14582771.843 -15850639.812 10 0 59252 0.00000 0 -14563455.325 -16154124.660 -13321440.606 10 0 59252 900.00000 0 -15429832.848 -17364293.200 -10533383.081 10 0 59252 1800.00000 0 -16197109.620 -18203955.519 -7540651.808 10 0 59252 2700.00000 0 -16805253.191 -18677378.509 -4401405.674 10 0 59252 3600.00000 0 -17198076.500 -18802023.441 -1176645.205 10 0 59252 4500.00000 0 -17325761.717 -18607608.934 2070975.544 10 0 59252 5400.00000 0 -17147130.585 -18134672.521 5278368.999 10 0 59252 6300.00000 0 -16631564.795 -17432692.248 8383241.827 10 0 59252 7200.00000 0 -15760494.884 -16557848.497 11325306.081 10 0 59252 8100.00000 0 -14528394.350 -15570521.181 14047449.919 10 0 59252 9000.00000 0 -12943236.522 -14532628.428 16496845.062 10 0 59252 9900.00000 0 -11026394.455 -13504919.253 18625969.427 10 0 59252 10800.00000 0 -8811987.339 -12544334.385 20393525.488 10 0 59252 11700.00000 0 -6345700.071 -11701546.163 21765236.967 10 0 59252 12600.00000 0 -3683124.545 -11018780.676 22714509.009 10 0 59252 13500.00000 0 -887690.922 -10528013.194 23222939.698 10 0 59252 14400.00000 0 1971725.995 -10249612.176 23280673.626 10 0 59252 15300.00000 0 4823426.735 -10191488.308 22886591.119 10 0 59252 16200.00000 0 7595625.756 -10348783.904 22048329.747 10 0 59252 17100.00000 0 10219196.081 -10704115.478 20782137.742 10 0 59252 18000.00000 0 12630306.961 -11228359.262 19112561.924 10 0 59252 18900.00000 0 14772846.026 -11881946.800 17071975.804 10 0 59252 19800.00000 0 16600526.087 -12616616.396 14699956.340 10 0 59252 20700.00000 0 18078589.562 -13377547.051 12042520.865 10 0 59252 21600.00000 0 19185040.166 -14105785.312 9151238.301 10 0 59252 22500.00000 0 19911350.962 -14740862.938 6082231.350 10 0 59252 23400.00000 0 20262619.613 -15223494.993 2895088.753 10 0 59252 24300.00000 0 20257164.819 -15498244.267 -348291.454 10 0 59252 25200.00000 0 19925581.344 -15516039.109 -3584905.148 10 0 59252 26100.00000 0 19309293.830 -15236437.635 -6751868.090 10 0 59252 27000.00000 0 18458670.760 -14629541.873 -9787640.445 10 0 59252 27900.00000 0 17430778.537 -13677479.970 -12633225.633 10 0 59252 28800.00000 0 16286870.809 -12375392.873 -15233319.640 10 0 59252 29700.00000 0 15089719.293 -10731882.694 -17537388.148 10 0 59252 30600.00000 0 13900898.952 -8768902.653 -19500650.317 10 0 59252 31500.00000 0 12778142.152 -6521092.083 -21084949.938 10 0 59252 32400.00000 0 11772873.309 -4034583.178 -22259497.169 10 0 59252 33300.00000 0 10928027.762 -1365328.302 -23001466.602 10 0 59252 34200.00000 0 10276246.484 1422983.215 -23296440.286 10 0 59252 35100.00000 0 9838522.265 4261332.867 -23138687.369 10 0 59252 36000.00000 0 9623353.972 7078005.907 -22531275.118 10 0 59252 36900.00000 0 9626444.086 9801340.524 -21486009.259 10 0 59252 37800.00000 0 9830951.871 12362479.597 -20023204.787 10 0 59252 38700.00000 0 10208291.182 14698011.177 -18171291.519 10 0 59252 39600.00000 0 10719439.038 16752388.320 -15966261.874 10 0 59252 40500.00000 0 11316699.515 18480028.044 -13450971.360 10 0 59252 41400.00000 0 11945848.329 19847002.550 -10674305.085 10 0 59252 42300.00000 0 12548567.284 20832252.618 -7690226.449 10 0 59252 43200.00000 0 13065065.443 21428273.248 -4556726.479 10 0 59252 44100.00000 0 13436775.878 21641243.666 -1334694.356 10 0 59252 45000.00000 0 13609013.541 21490597.109 1913268.521 10 0 59252 45900.00000 0 13533481.418 21008049.482 5124067.516 10 0 59252 46800.00000 0 13170518.477 20236128.727 8235342.658 10 0 59252 47700.00000 0 12490993.914 19226267.677 11186681.110 10 0 59252 48600.00000 0 11477767.152 18036541.552 13920790.366 10 0 59252 49500.00000 0 10126651.406 16729145.926 16384609.270 10 0 59252 50400.00000 0 8446839.641 15367721.743 18530335.261 10 0 59252 51300.00000 0 6460774.280 14014640.042 20316348.227 10 0 59252 52200.00000 0 4203465.293 12728360.377 21708013.524 10 0 59252 53100.00000 0 1721284.383 11560973.561 22678349.118 10 0 59252 54000.00000 0 -929715.406 10556031.276 23208544.601 10 0 59252 54900.00000 0 -3685885.718 9746752.893 23288322.650 10 0 59252 55800.00000 0 -6478388.727 9154683.970 22916136.363 10 0 59252 56700.00000 0 -9235823.993 8788861.926 22099198.966 10 0 59252 57600.00000 0 -11886968.309 8645523.270 20853345.365 10 0 59252 58500.00000 0 -14363515.695 8708364.196 19202728.012 10 0 59252 59400.00000 0 -16602704.697 8949343.314 17179352.580 10 0 59252 60300.00000 0 -18549724.547 9329992.615 14822461.845 10 0 59252 61200.00000 0 -20159800.637 9803181.565 12177779.084 10 0 59252 62100.00000 0 -21399872.918 10315260.025 9296625.045 10 0 59252 63000.00000 0 -22249797.563 10808489.726 6234925.018 10 0 59252 63900.00000 0 -22703021.909 11223661.599 3052125.005 10 0 59252 64800.00000 0 -22766704.689 11502788.240 -189962.164 10 0 59252 65700.00000 0 -22461276.772 11591757.301 -3428358.315 10 0 59252 66600.00000 0 -21819461.105 11442833.073 -6600145.323 10 0 59252 67500.00000 0 -20884793.410 11016899.712 -9643690.250 10 0 59252 68400.00000 0 -19709706.206 10285350.355 -12499845.952 10 0 59252 69300.00000 0 -18353257.176 9231541.286 -15113103.298 10 0 59252 70200.00000 0 -16878597.856 7851748.623 -17432672.270 10 0 59252 71100.00000 0 -15350289.445 6155585.961 -19413470.713 10 0 59252 72000.00000 0 -13831578.854 4165864.171 -21017001.369 10 0 59252 72900.00000 0 -12381749.578 1917897.968 -22212100.273 10 0 59252 73800.00000 0 -11053658.575 -541712.957 -22975542.143 10 0 59252 74700.00000 0 -9891562.398 -3156778.356 -23292491.221 10 0 59252 75600.00000 0 -8929323.397 -5863617.736 -23156789.093 10 0 59252 76500.00000 0 -8189070.801 -8593479.977 -22571074.065 10 0 59252 77400.00000 0 -7680372.259 -11275182.177 -21546729.859 10 0 59252 78300.00000 0 -7399950.027 -13837858.649 -20103664.654 10 0 59252 79200.00000 0 -7331952.998 -16213706.202 -18269924.561 10 0 59252 80100.00000 0 -7448772.554 -18340611.846 -16081148.869 10 0 59252 81000.00000 0 -7712367.227 -20164553.874 -13579877.410 10 0 59252 81900.00000 0 -8076039.752 -21641676.623 -10814723.208 10 0 59252 82800.00000 0 -8486590.994 -22739952.598 -7839426.474 10 0 59252 83700.00000 0 -8886759.191 -23440362.988 -4711808.267 10 0 59252 84600.00000 0 -9217840.878 -23737547.699 -1492644.304 10 0 59252 85500.00000 0 -9422382.081 -23639898.245 1755518.805 10 0 59253 0.00000 0 -9446825.409 -23169090.424 4969581.463 10 0 59253 900.00000 0 -9244000.089 -22359076.983 8087119.413 10 0 59253 1800.00000 0 -8775350.300 -21254583.911 11047597.156 10 0 59253 2700.00000 0 -8012804.965 -19909173.617 13793543.828 10 0 59253 3600.00000 0 -6940211.702 -18382957.686 16271667.704 10 0 59253 4500.00000 0 -5554272.365 -16740055.383 18433887.968 10 0 59253 5400.00000 0 -3864940.758 -15045905.002 20238263.995 10 0 59253 6300.00000 0 -1895264.821 -13364540.738 21649804.617 10 0 59253 7200.00000 0 319320.905 -11755948.981 22641142.174 10 0 59253 8100.00000 0 2732223.978 -10273614.217 23193058.998 10 0 59253 9000.00000 0 5287393.748 -8962356.465 23294856.732 10 0 59253 9900.00000 0 7921422.298 -7856549.972 22944561.769 10 0 59253 10800.00000 0 10565960.369 -6978796.693 22148963.183 10 0 59253 11700.00000 0 13150349.003 -6339109.220 20923482.419 10 0 59253 12600.00000 0 15604358.431 -5934636.569 19291877.112 10 0 59253 13500.00000 0 17860921.335 -5749943.640 17285784.354 10 0 59253 14400.00000 0 19858747.546 -5757832.092 14944111.665 10 0 59253 15300.00000 0 21544711.810 -5920667.792 12312286.872 10 0 59253 16200.00000 0 22875915.535 -6192158.701 9441380.805 10 0 59253 17100.00000 0 23821336.692 -6519508.055 6387119.233 10 0 59253 18000.00000 0 24362998.950 -6845851.807 3208802.963 10 0 59253 18900.00000 0 24496611.192 -7112877.087 -31843.144 10 0 59253 19800.00000 0 24231650.614 -7263510.577 -3271869.859 10 0 59253 20700.00000 0 23590885.925 -7244562.589 -6448328.297 10 0 59253 21600.00000 0 22609360.804 -7009214.286 -9499495.556 10 0 59253 22500.00000 0 21332880.441 -6519241.983 -12366076.989 10 0 59253 23400.00000 0 19816065.001 -5746883.568 -14992361.246 10 0 59253 24300.00000 0 18120052.013 -4676267.091 -17327305.280 10 0 59253 25200.00000 0 16309944.433 -3304340.087 -19325528.037 10 0 59253 26100.00000 0 14452111.676 -1641259.270 -20948193.337 10 0 59253 27000.00000 0 12611456.939 289777.049 -22163764.906 10 0 59253 27900.00000 0 10848765.255 2453248.105 -22948619.066 10 0 59253 28800.00000 0 9218243.231 4802552.401 -23287503.375 10 0 59253 29700.00000 0 7765353.096 7281721.279 -23173832.581 10 0 59253 30600.00000 0 6525031.145 9827533.839 -22609816.349 10 0 59253 31500.00000 0 5520364.574 12371945.833 -21606416.318 10 0 59253 32400.00000 0 4761781.288 14844732.060 -20183133.369 10 0 59253 33300.00000 0 4246785.768 17176232.794 -18367629.034 10 0 59253 34200.00000 0 3960251.203 19300090.137 -16195188.233 10 0 59253 35100.00000 0 3875254.672 21155860.572 -13708033.513 10 0 59253 36000.00000 0 3954419.319 22691394.943 -10954503.877 10 0 59253 36900.00000 0 4151706.113 23864886.579 -7988114.073 10 0 59253 37800.00000 0 4414578.747 24646502.154 -4866512.631 10 0 59253 38700.00000 0 4686449.416 25019527.259 -1650359.003 10 0 59253 39600.00000 0 4909301.354 24980978.996 1597857.980 10 0 59253 40500.00000 0 5026376.444 24541660.353 4815036.985 10 0 59253 41400.00000 0 4984813.539 23725654.606 7938692.334 10 0 59253 42300.00000 0 4738125.250 22569281.581 10908169.027 10 0 59253 43200.00000 0 4248407.903 21119560.194 13665820.790 10 0 59253 44100.00000 0 3488190.710 19432242.349 16158128.095 10 0 59253 45000.00000 0 2441845.590 17569501.116 18336734.415 10 0 59253 45900.00000 0 1106497.618 15597370.341 20159380.924 10 0 59253 46800.00000 0 -507602.904 13583042.904 21590721.958 10 0 59253 47700.00000 0 -2377263.143 11592140.485 22603005.956 10 0 59253 48600.00000 0 -4467078.471 9686068.450 23176609.347 10 0 59253 49500.00000 0 -6730681.755 7919565.636 23300413.690 10 0 59253 50400.00000 0 -9112460.118 6338550.484 22972019.167 10 0 59253 51300.00000 0 -11549668.772 4978352.434 22197790.674 10 0 59253 52200.00000 0 -13974855.077 3862401.356 20992735.632 10 0 59253 53100.00000 0 -16318492.895 3001428.823 19380215.742 10 0 59253 54000.00000 0 -18511718.574 2393213.653 17391497.854 10 0 59253 54900.00000 0 -20489055.413 2022881.544 15065152.094 10 0 59253 55800.00000 0 -22191013.543 1863745.580 12446308.283 10 0 59253 56700.00000 0 -23566457.161 1878651.712 9585784.453 10 0 59253 57600.00000 0 -24574640.385 2021772.094 6539103.774 10 0 59253 58500.00000 0 -25186826.508 2240770.314 3365418.660 10 0 59253 59400.00000 0 -25387422.722 2479246.660 126362.776 10 0 59253 60300.00000 0 -25174582.532 2679359.663 -3115146.784 10 0 59253 61200.00000 0 -24560250.328 2784512.482 -6296133.509 10 0 59253 62100.00000 0 -23569646.075 2741989.855 -9354787.566 10 0 59253 63000.00000 0 -22240211.613 2505433.251 -12231669.720 10 0 59253 63900.00000 0 -20620062.807 2037048.708 -14870869.129 10 0 59253 64800.00000 0 -18766012.529 1309453.048 -17221092.203 10 0 59253 65700.00000 0 -16741247.452 307079.477 -19236661.135 10 0 59253 66600.00000 0 -14612756.158 -972917.788 -20878402.547 10 0 59253 67500.00000 0 -12448616.260 -2520299.141 -22114409.082 10 0 59253 68400.00000 0 -10315253.952 -4311931.962 -22920659.345 10 0 59253 69300.00000 0 -8274790.413 -6312532.843 -23281484.314 10 0 59253 70200.00000 0 -6382585.550 -8475929.737 -23189871.481 10 0 59253 71100.00000 0 -4685081.158 -10746792.314 -22647600.931 10 0 59253 72000.00000 0 -3218032.952 -13062759.148 -21665210.851 10 0 59253 72900.00000 0 -2005204.505 -15356873.712 -20261793.091 10 0 59253 73800.00000 0 -1057576.752 -17560228.196 -18464622.578 10 0 59253 74700.00000 0 -373105.172 -19604705.161 -16308627.631 10 0 59253 75600.00000 0 62966.322 -21425702.899 -13835711.155 10 0 59253 76500.00000 0 277249.059 -22964730.801 -11093935.711 10 0 59253 77400.00000 0 306847.999 -24171766.173 -8136588.180 10 0 59253 78300.00000 0 197553.270 -25007273.945 -5021142.210 10 0 59253 79200.00000 0 1662.216 -25443804.627 -1808138.709 10 0 59253 80100.00000 0 -224475.109 -25467103.556 1439993.453 10 0 59253 81000.00000 0 -423082.317 -25076685.063 4660153.241 10 0 59253 81900.00000 0 -537643.061 -24285847.661 7789795.709 10 0 59253 82800.00000 0 -515533.036 -23121129.962 10768148.291 10 0 59253 83700.00000 0 -310485.709 -21621230.518 13537391.213 10 0 59253 84600.00000 0 115213.010 -19835437.235 16043778.978 10 0 59253 85500.00000 0 788894.289 -17821632.551 18238681.066 99